Погода в Степаненках

Россия / Удмуртская Республика     58°13′52″N   53°33′34″E
темп.,
°C
ветер,
м/с
пор.,
м/с
влажн.,
%
обл.,
%
осадки,
мм/ч
давл.,
гПа
погр.,
м
26 февраля, пт
пт2601:00−26ююв38970 0.0 1024166
04:00−27юв37984 0.0 1025165
07:00−28ююв379813 0.0 1024174
10:00−24ююв369747 0.0 1023238
13:00−20ююв4893100 0.0 1022397
16:00−19ююв4993100 0.0 1019470
19:00−21ююв41296100 0.0 1017421
22:00−21ююв51396100 0.0 1015432
27 февраля, сб
сб2701:00−20юв51394100 0.0 1011471
04:00−18юв61492100 0.0 1009550
07:00−17вюв51394100 0.3 1007658
10:00−15вюв51093100 0.8 1006699
13:00−14в5890100 0.4 1005629
16:00−14в5990100 0.5 1006569
19:00−16в41093100 0.1 1007505
22:00−17всв41094100 0.2 1008456
28 февраля, вс
вс2801:00−19всв4996100 0.1 1008390
04:00−22всв4997100 0.1 1010301
07:00−23св3898100 0.0 1010257
10:00−21св4796100 0.0 1011326
13:00−17св4790100 0.0 1011484
16:00−15св4791100 0.1 1013515
19:00−18ссв3997100 0.0 1014256
22:00−19ссв379987 0.1 1017148
1 марта, пн
пн101:00−20ссв2410087 0.0 101888
04:00−22с239981 0.0 102059
07:00−22с22997 0.0 102120
10:00−16с12913 0.0 1021174
13:00−11з128258 0.0 1021400
16:00−11зюз348967 0.0 1020402
19:00−17зюз239757 0.0 102068
22:00−18юз399738 0.0 1019181
2 марта, вт
вт201:00−18юз4109650 0.0 1017250
04:00−18юз5119863 0.0 1014293
07:00−16юз51396100 0.1 1011376
10:00−14юз51193100 0.6 1009422
13:00−11юз51092100 0.6 1007493
16:00−9юз4993100 1.3 1006483
19:00−10юз389599 0.3 1006337
22:00−11юз3895100 0.6 1005244